This is the latest recevied weather packets stored in our database for station/object KC8ZBC. If no packets are shown the sender has not sent any weather packets the latest 10 day(s).
| Time | Temp. | Humidity | Pressure | Rain* | Wind** | Luminosity | Snow |
|---|---|---|---|---|---|---|---|
| 1777744376 | 7.22° C | 49% | 992.2 hPa | 0 mm | - | 231 W/m² | - |
| 1777744073 | 7.22° C | 49% | 992.1 hPa | 0 mm | - | 355 W/m² | - |
| 1777743770 | 6.67° C | 50% | 992.4 hPa | 0 mm | - | 305 W/m² | - |
| 1777743467 | 6.67° C | 51% | 992.4 hPa | 0 mm | - | 206 W/m² | - |
| 1777743164 | 6.11° C | 51% | 992.2 hPa | 0 mm | - | 138 W/m² | - |
| 1777742863 | 6.11° C | 50% | 992.2 hPa | 0 mm | - | 146 W/m² | - |
| 1777742558 | 6.67° C | 50% | 992.4 hPa | 0 mm | - | 186 W/m² | - |
| 1777742254 | 6.67° C | 47% | 992.3 hPa | 0 mm | - | 328 W/m² | - |
| 1777741952 | 6.67° C | 46% | 992.4 hPa | 0 mm | - | 220 W/m² | - |
| 1777741649 | 6.11° C | 48% | 992.5 hPa | 0 mm | - | 295 W/m² | - |
| 1777741345 | 6.11° C | 48% | 992.3 hPa | 0 mm | - | 164 W/m² | - |
| 1777741041 | 6.11° C | 48% | 992.3 hPa | 0 mm | - | 116 W/m² | - |
| 1777740739 | 6.11° C | 47% | 992.3 hPa | 0 mm | - | 164 W/m² | - |
| 1777740435 | 6.11° C | 46% | 992.5 hPa | 0 mm | - | 228 W/m² | - |
| 1777740133 | 6.11° C | 47% | 992.3 hPa | 0 mm | - | 199 W/m² | - |
| 1777739828 | 6.67° C | 46% | 992.6 hPa | 0 mm | - | 218 W/m² | - |
| 1777739525 | 6.67° C | 51% | 992.5 hPa | 0 mm | - | 229 W/m² | - |
| 1777739222 | 7.78° C | 46% | 992.5 hPa | 0 mm | - | 383 W/m² | - |
| 1777738918 | 6.11° C | 50% | 992.6 hPa | 0 mm | - | 465 W/m² | - |
| 1777738616 | 5.56° C | 51% | 992.5 hPa | 0 mm | - | 146 W/m² | - |
| 1777738312 | 5.56° C | 48% | 992.5 hPa | 0 mm | - | 139 W/m² | - |
| 1777738010 | 5.56° C | 46% | 992.6 hPa | 0 mm | - | 213 W/m² | - |
| 1777737709 | 6.11° C | 51% | 992.8 hPa | 0 mm | - | 881 W/m² | - |
| 1777737407 | 6.67° C | 46% | 992.7 hPa | 0 mm | - | 798 W/m² | - |
| 1777737104 | 7.22° C | 49% | 992.4 hPa | 0 mm | - | 455 W/m² | - |
* Rain latest hour (hover to see other rain measurements)
** Current wind speed in m/s (hover to see current wind gust speed)